This is the latest recevied weather packets stored in our database for station/object K2ATL. If no packets are shown the sender has not sent any weather packets the latest 10 day(s).
| Time | Temp. | Humidity | Pressure | Rain* | Wind** | Luminosity | Snow |
|---|---|---|---|---|---|---|---|
| 1788063099 | 22.22° C | 91% | 1108.4 hPa | 0 mm | - | 0 W/m² | - |
| 1788062795 | 22.22° C | 90% | 1108 hPa | 0 mm | - | 0 W/m² | - |
| 1788062491 | 22.22° C | 90% | 1108.1 hPa | 0 mm | - | 0 W/m² | - |
| 1788062189 | 21.67° C | 91% | 1108.1 hPa | 0 mm | - | 0 W/m² | - |
| 1788061885 | 22.22° C | 91% | 1108.1 hPa | 0 mm | - | 0 W/m² | - |
| 1788061580 | 22.22° C | 90% | 1108.5 hPa | 0 mm | - | 0 W/m² | - |
| 1788061279 | 22.22° C | 89% | 1108.4 hPa | 0 mm | - | 0 W/m² | - |
| 1788060975 | 22.22° C | 89% | 1108.4 hPa | 0 mm | - | 0 W/m² | - |
| 1788060670 | 22.22° C | 90% | 1108.5 hPa | 0 mm | - | 0 W/m² | - |
| 1788060369 | 22.78° C | 87% | 1108.3 hPa | 0 mm | - | 0 W/m² | - |
| 1788060065 | 22.78° C | 86% | 1108.3 hPa | 0 mm | - | 0 W/m² | - |
| 1788059760 | 22.78° C | 87% | 1108.4 hPa | 0 mm | - | 0 W/m² | - |
| 1788059455 | 22.78° C | 85% | 1108.3 hPa | 0 mm | - | 0 W/m² | - |
| 1788059151 | 22.78° C | 87% | 1108.3 hPa | 0 mm | - | 0 W/m² | - |
| 1788058846 | 22.78° C | 87% | 1108.1 hPa | 0 mm | - | 0 W/m² | - |
| 1788058539 | 22.78° C | 87% | 1108.1 hPa | 0 mm | - | 0 W/m² | - |
| 1788058239 | 22.78° C | 86% | 1107.9 hPa | 0 mm | - | 0 W/m² | - |
| 1788057934 | 23.33° C | 85% | 1107.9 hPa | 0 mm | - | 0 W/m² | - |
| 1788057632 | 22.78° C | 88% | 1108 hPa | 0 mm | - | 0 W/m² | - |
| 1788057330 | 22.78° C | 88% | 1107.8 hPa | 0 mm | - | 0 W/m² | - |
| 1788057026 | 22.78° C | 88% | 1107.7 hPa | 0 mm | - | 0 W/m² | - |
| 1788056720 | 22.78° C | 86% | 1107.7 hPa | 0 mm | - | 0 W/m² | - |
| 1788056416 | 22.78° C | 87% | 1107.4 hPa | 0 mm | - | 0 W/m² | - |
| 1788056115 | 22.78° C | 88% | 1107.4 hPa | 0 mm | - | 0 W/m² | - |
| 1788055810 | 22.78° C | 88% | 1107.6 hPa | 0 mm | - | 0 W/m² | - |
* Rain latest hour (hover to see other rain measurements)
** Current wind speed in m/s (hover to see current wind gust speed)